Hinckley, MN

5:26 AM CDT on May 26, 2017 (GMT -0500)
Hinckley

Weather History for K04W - December, 2013

Change the Weather History Date:

Wednesday, December 25, 2013

  Actual Average (KJMR) Record (KJMR)
Temperature  
Mean Temperature 14 °F -  
Max Temperature 23 °F 19 °F 46 °F (1999)
Min Temperature 6 °F -2 °F -32 °F (1968)
Degree Days  
Heating Degree Days 50    
Moisture  
Dew Point 10 °F    
Average Humidity 83    
Maximum Humidity 93    
Minimum Humidity 67    
Precipitation  
Precipitation 0.00 in - - ()
Sea Level Pressure  
Sea Level Pressure 30.04 in    
Wind  
Wind Speed 5 mph (SW)    
Max Wind Speed 12 mph    
Max Gust Speed 16 mph    
Visibility 7 miles    
Events Snow    
Averages and records for this station are not official NWS values.
T = Trace of Precipitation, MM = Missing Value Source: NWS Daily Summary

Daily Weather History Graph

Daily Weather History Graph

Search for Another Location

Airport or City:

Trip Planner

Search our weather history database for the weather conditions in past years. The results will help you decide how hot, cold, wet, or windy it might be!

Date:

Astronomy

Dec. 25, 2013 Rise Set
Actual Time 7:52 AM CST 4:31 PM CST
Civil Twilight 7:17 AM CST 5:06 PM CST
Nautical Twilight 6:39 AM CST 5:44 PM CST
Astronomical Twilight 6:03 AM CST 6:20 PM CST
Moon 12:02 AM CST (12/25) 11:52 AM CST (12/25)
Length of Visible Light 9h 48m
Length of Day
8h 38m
Waning Gibbous, 48% of the Moon is Illuminated
Dec 25
Waning Gibbous
Jan 1
New
Jan 7
First Quarter
Jan 15
Full
Jan 23
Last Quarter

Hourly Weather History & Observations

Time (CST) Temp. Windchill Dew Point Humidity Pressure Visibility Wind Dir Wind Speed Gust Speed Precip Events Conditions
12:05 AM 8.6 °F -2.6 °F 5.0 °F 85% 30.08 in 3.0 mi South 6.9 mph - N/A   Overcast
4:05 AM 8.6 °F -1.3 °F 6.8 °F 92% 30.03 in 7.0 mi South 5.8 mph - N/A   Overcast
4:32 AM 10.4 °F 0.8 °F 8.6 °F 92% 30.02 in 5.0 mi SSW 5.8 mph - N/A Snow Light Snow
4:34 AM 10.4 °F 0.8 °F 8.6 °F 92% 30.02 in 5.0 mi South 5.8 mph - N/A Snow Light Snow
4:54 AM 10.4 °F 0.8 °F 8.6 °F 92% 30.02 in 7.0 mi SSW 5.8 mph - N/A Snow Light Snow
5:14 AM 10.4 °F 0.8 °F 8.6 °F 92% 30.03 in 7.0 mi SW 5.8 mph - N/A Snow Light Snow
5:34 AM 10.4 °F 2.2 °F 8.6 °F 92% 30.03 in 4.0 mi SSW 4.6 mph - N/A Snow Light Snow
5:54 AM 10.4 °F 2.2 °F 8.6 °F 92% 30.02 in 7.0 mi SSW 4.6 mph - N/A Snow Light Snow
6:15 AM 10.4 °F 4.0 °F 8.6 °F 92% 30.03 in 10.0 mi SSW 3.5 mph - N/A Snow Light Snow
6:34 AM 10.4 °F 4.0 °F 8.6 °F 92% 30.02 in 7.0 mi South 3.5 mph - N/A Snow Light Snow
6:54 AM 10.4 °F 2.2 °F 8.6 °F 92% 30.02 in 10.0 mi South 4.6 mph - N/A Snow Light Snow
7:15 AM 10.4 °F 0.8 °F 8.6 °F 92% 30.03 in 5.0 mi SSW 5.8 mph - N/A Snow Light Snow
7:34 AM 10.4 °F 2.2 °F 8.6 °F 92% 30.03 in 7.0 mi South 4.6 mph - N/A Snow Light Snow
7:54 AM 12.2 °F - 8.6 °F 85% 30.03 in 4.0 mi Calm Calm - N/A Snow Light Snow
8:15 AM 12.2 °F 6.1 °F 8.6 °F 85% 30.03 in 5.0 mi South 3.5 mph - N/A Snow Light Snow
8:34 AM 12.2 °F 6.1 °F 8.6 °F 85% 30.03 in 5.0 mi South 3.5 mph - N/A Snow Light Snow
8:54 AM 12.2 °F 6.1 °F 8.6 °F 85% 30.03 in 5.0 mi South 3.5 mph - N/A Snow Light Snow
9:15 AM 12.2 °F 6.1 °F 10.4 °F 92% 30.03 in 5.0 mi SSW 3.5 mph - N/A Snow Light Snow
9:34 AM 12.2 °F 6.1 °F 10.4 °F 92% 30.03 in 7.0 mi South 3.5 mph - N/A Snow Light Snow
9:54 AM 12.2 °F 6.1 °F 10.4 °F 92% 30.03 in 7.0 mi South 3.5 mph - N/A Snow Light Snow
10:15 AM 14.0 °F 8.2 °F 10.4 °F 86% 30.03 in 10.0 mi South 3.5 mph - N/A   Overcast
10:34 AM 14.0 °F 5.1 °F 10.4 °F 86% 30.03 in 7.0 mi South 5.8 mph - N/A   Overcast
10:55 AM 14.0 °F 6.5 °F 12.2 °F 93% 30.02 in 5.0 mi South 4.6 mph - N/A   Overcast
11:14 AM 14.0 °F 8.2 °F 12.2 °F 93% 30.02 in 5.0 mi South 3.5 mph - N/A   Overcast
11:34 AM 14.0 °F 8.2 °F 12.2 °F 93% 30.02 in 4.0 mi SSW 3.5 mph - N/A Snow Light Snow
11:54 AM 14.0 °F - 12.2 °F 93% 30.01 in 5.0 mi Calm Calm - N/A   Overcast
12:14 PM 15.8 °F 8.6 °F 14.0 °F 93% 30.01 in 4.0 mi SW 4.6 mph - N/A   Overcast
12:35 PM 15.8 °F 8.6 °F 14.0 °F 93% 30.01 in 7.0 mi SW 4.6 mph - N/A   Overcast
12:54 PM 17.6 °F 12.3 °F 14.0 °F 86% 30.00 in 5.0 mi SW 3.5 mph - N/A   Overcast
1:14 PM 17.6 °F 10.7 °F 14.0 °F 86% 30.00 in 4.0 mi SSW 4.6 mph - N/A Snow Light Snow
1:35 PM 19.4 °F 12.8 °F 15.8 °F 86% 29.99 in 4.0 mi WSW 4.6 mph - N/A Snow Light Snow
1:54 PM 19.4 °F 11.5 °F 15.8 °F 86% 29.99 in 3.0 mi WSW 5.8 mph - N/A Snow Light Snow
2:14 PM 21.2 °F 14.9 °F 17.6 °F 86% 30.00 in 3.0 mi WSW 4.6 mph - N/A Snow Light Snow
2:35 PM 21.2 °F 16.4 °F 17.6 °F 86% 30.00 in 2.5 mi West 3.5 mph - N/A Snow Light Snow
2:54 PM 23.0 °F 13.9 °F 15.8 °F 74% 30.00 in 10.0 mi WNW 8.1 mph - N/A Snow Light Snow
3:15 PM 23.0 °F 17.0 °F 15.8 °F 74% 30.00 in 10.0 mi WNW 4.6 mph - N/A Snow Light Snow
3:34 PM 23.0 °F 14.7 °F 15.8 °F 74% 30.01 in 7.0 mi WNW 6.9 mph - N/A Snow Light Snow
3:54 PM 21.2 °F 13.6 °F 17.6 °F 86% 30.01 in 4.0 mi NW 5.8 mph - N/A Snow Light Snow
4:15 PM 21.2 °F 10.9 °F 15.8 °F 80% 30.02 in 5.0 mi NNW 9.2 mph 16.1 mph N/A Snow Light Snow
4:34 PM 19.4 °F 7.2 °F 12.2 °F 74% 30.03 in 10.0 mi NW 11.5 mph - N/A Snow Light Snow
4:54 PM 19.4 °F 11.5 °F 10.4 °F 68% 30.04 in 10.0 mi NW 5.8 mph - N/A   Scattered Clouds
5:15 PM 17.6 °F 8.2 °F 10.4 °F 73% 30.05 in 10.0 mi NW 6.9 mph - N/A   Mostly Cloudy
5:34 PM 17.6 °F 9.3 °F 8.6 °F 68% 30.05 in 10.0 mi NW 5.8 mph - N/A   Mostly Cloudy
5:55 PM 15.8 °F 8.6 °F 8.6 °F 73% 30.06 in 10.0 mi NW 4.6 mph - N/A   Scattered Clouds
6:15 PM 14.0 °F - 8.6 °F 79% 30.05 in 10.0 mi Calm Calm - N/A   Scattered Clouds
6:34 PM 14.0 °F - 8.6 °F 79% 30.06 in 10.0 mi Calm Calm - N/A   Scattered Clouds
6:55 PM 14.0 °F 5.1 °F 8.6 °F 79% 30.07 in 10.0 mi NW 5.8 mph - N/A   Mostly Cloudy
7:15 PM 14.0 °F 5.1 °F 5.0 °F 67% 30.07 in 10.0 mi NW 5.8 mph - N/A   Scattered Clouds
7:34 PM 14.0 °F 6.5 °F 5.0 °F 67% 30.07 in 10.0 mi WNW 4.6 mph - N/A   Mostly Cloudy
7:55 PM 14.0 °F 6.5 °F 5.0 °F 67% 30.08 in 10.0 mi NW 4.6 mph - N/A   Overcast
8:15 PM 12.2 °F 2.9 °F 5.0 °F 73% 30.07 in 10.0 mi NW 5.8 mph - N/A   Overcast
8:34 PM 12.2 °F - 5.0 °F 73% 30.07 in 10.0 mi Calm Calm - N/A   Overcast
8:55 PM 12.2 °F - 5.0 °F 73% 30.06 in 10.0 mi Calm Calm - N/A   Overcast
9:15 PM 12.2 °F - 5.0 °F 73% 30.07 in 10.0 mi Calm Calm - N/A   Overcast
9:34 PM 6.8 °F -0.1 °F 1.4 °F 79% 30.07 in 10.0 mi SW 3.5 mph - N/A   Overcast
9:55 PM 10.4 °F - 5.0 °F 79% 30.08 in 10.0 mi Calm Calm - N/A   Overcast
10:14 PM 10.4 °F - 5.0 °F 79% 30.07 in 10.0 mi Calm Calm - N/A   Overcast
10:34 PM 10.4 °F 4.0 °F 5.0 °F 79% 30.08 in 10.0 mi West 3.5 mph - N/A   Overcast
10:54 PM 8.6 °F 2.0 °F 3.2 °F 79% 30.08 in 10.0 mi West 3.5 mph - N/A   Overcast
11:14 PM 10.4 °F - 5.0 °F 79% 30.08 in 10.0 mi Calm Calm - N/A   Overcast
11:34 PM 10.4 °F 2.2 °F 5.0 °F 79% 30.07 in 10.0 mi SW 4.6 mph - N/A   Overcast
11:54 PM 10.4 °F 4.0 °F 5.0 °F 79% 30.07 in 10.0 mi WSW 3.5 mph - N/A   Overcast